Other Public Products
Issued by NWS Charleston, SC

Current Version | Previous Version | Text Only | Print | Product List | Glossary Off
Versions: 1 2 3 4 5 6 7 8 9 10 11 12 13 14 15 16 17 18 19 20 21 22 23 24 25 26 27 28 29 30 31 32 33 34 35 36 37 38 39 40 41 42 43 44 45 46 47 48 49 50
000 FPUS82 KCHS 191527 OPUCHS TEST...KCHS/KSAV Gateway Observations...TEST National Weather Service Charleston SC 1000 AM EST THU JAN 19 2017 NOTE: "fair" indicates few or no clouds below 12,000 feet with no significant weather and/or obstructions to visibility. SCZ050-WAZ558-NCZ071-TXZ119-213-PAZ071-DCZ001-FLZ074-172-MI076- NYZ176-178-MAZ016-IL014-TNZ027-NJZ106-GAZ044-MD014-191600- ...Gateway Observations for Charleston International... CITY SKY/WX TMP DP RH WIND PRES REMARKS Chas Airport CLOUDY 60 52 74 NE6 30.07S Seattle CLOUDY 45 40 82 S9 29.49R Charlotte PTSUNNY 52 36 54 E9G18 30.13R Dallas DFW FOG 49 49 100 S8 29.82S VSB 3/4 Dallas Love CLOUDY 50 48 93 SW8 29.84R FOG Philladelphia PTSUNNY 47 35 63 N12 30.09S Wash National CLOUDY 49 37 63 NW12 30.12R Baltimore CLOUDY 46 36 68 W8 30.10R Miami MOSUNNY 77 64 64 N3 30.10S Detroit CLOUDY 35 31 85 SW6 30.09R FOG WCI 30 Newark MOSUNNY 46 35 65 NW12 30.06 Laguardia MOSUNNY 45 36 70 NW10 30.06R J F K MOSUNNY 47 35 63 NW15 30.07S Boston Logan PTSUNNY 38 35 89 CALM 30.01S Ft. Lauderdale MOSUNNY 73 64 73 W5 30.09R Chicago O`Hare CLOUDY 36 34 92 S5 29.99F FOG WCI 32 Chicago Midway CLOUDY 35 33 92 SE6 30.01S FOG WCI 30 Houston Bush LGT RAIN 56 54 93 S7 29.91S FOG Houston Hobby HVY RAIN 56 55 97 S5 29.94R FOG Nashville CLOUDY 50 47 89 E3 29.99S FOG Atlanta PTSUNNY 63 51 65 SE5 30.06R $$ GAZ044-118-TXZ119-213-NCZ071-DCZ001-MDZ014-506-PAZ021-071-NJZ106- NYZ176-178-MAZ106-OHZ011-021-055-MIZ076-KYZ091-ILZ014-INZ047- MNZ060-191600- ...Gateway Observations for Savannah International... CITY SKY/WX TMP DP RH WIND PRES REMARKS Savannah Arpt CLOUDY 66 54 65 N6 30.06S Atlanta PTSUNNY 63 51 65 SE5 30.06R Charlotte PTSUNNY 52 36 54 E9G18 30.13R Dallas DFW FOG 49 49 100 S8 29.82S VSB 3/4 Houston Bush LGT RAIN 56 54 93 S7 29.91S FOG Wash National CLOUDY 49 37 63 NW12 30.12R Wash Dulles PTSUNNY 47 35 63 NW7 30.11R Baltimore CLOUDY 46 36 68 W8 30.10R Philadelphia PTSUNNY 47 35 63 N12 30.09S Newark MOSUNNY 46 35 65 NW12 30.06 Laguardia MOSUNNY 45 36 70 NW10 30.06R J F K MOSUNNY 47 35 63 NW15 30.07S Boston PTSUNNY 38 35 89 CALM 30.01S Pittsburg CLOUDY 38 36 92 W5 30.10S WCI 34 Akron CLOUDY 38 34 85 SW5 30.08F FOG WCI 34 Cleveland CLOUDY 39 33 79 S6 30.11F WCI 35 Cincinnati CLOUDY 41 38 89 SE8 30.04F Columbus N/A 38 37 94 SE5 30.10R WCI 35 Detroit CLOUDY 35 31 85 SW6 30.09R FOG WCI 30 Chicago O`Hare CLOUDY 36 34 92 S5 29.99F FOG WCI 32 Minneapolis SUNNY 33 29 85 SE7 29.81F WCI 27 Indianapolis PTSUNNY 39 36 89 SE9 30.03F FOG WCI 33 $$

USA.gov is the U.S. government's official web portal to all federal, state and local government web resources and services.